Regional Weather Roundup
Issued by NWS

Home | Current Version | Previous Version | Graphics & Text | Print | Product List | Glossary On
Versions: 1 2 3 4 5 6 7 8 9 10 11 12 13 14 15 16 17 18 19 20 21 22 23 24 25 26 27 28 29 30 31 32 33 34 35 36 37 38 39 40 41 42 43 44 45 46 47 48 49 50
000
ASUS43 KMPX 011401
RWRMN
WEATHER ROUNDUP FOR MINNESOTA
NATIONAL WEATHER SERVICE TWIN CITIES/CHANHASSEN MN
900 AM CDT SAT AUG 01 2015


NOTE: "FAIR" INDICATES FEW OR NO CLOUDS BELOW 12,000 FEET WITH NO
SIGNIFICANT WEATHER AND/OR OBSTRUCTIONS TO VISIBILITY. N/A MEANS
CURRENT SKY AND/OR WEATHER CONDITIONS ARE NOT AVAILABLE.

MNZ060>063-068>070-011500-
   Twin Cities Metro

CITY           SKY/WX    TMP DP  RH WIND       PRES   REMARKS
TWIN CITIES    MOSUNNY   75  59  57 CALM      29.97S
ST PAUL        SUNNY     73  63  70 CALM      29.97S
CRYSTAL        SUNNY     75  59  57 CALM      29.96S
LAKEVILLE      SUNNY     70  61  73 CALM      29.98S
EDEN PRAIRIE   SUNNY     73  61  65 CALM      29.97R
SOUTH ST PAUL  SUNNY     73  59  60 CALM      29.97S
LAKE ELMO      FAIR      72  61  68 CALM      29.99R
$$
MNZ001>005-007-008-013>017-022>024-027-028-011500-
   Northwest Minnesota

CITY           SKY/WX    TMP DP  RH WIND       PRES   REMARKS
BEMIDJI        SUNNY     65  54  66 W3        29.96S
HALLOCK        SUNNY     64  57  77 SW3       29.91S
ROSEAU         SUNNY     66  59  77 SW5       29.91F
WARROAD        SUNNY     64  57  77 SW8       29.90F
THIEF RVR FALL SUNNY     64  55  72 CALM      29.94F
CROOKSTON      SUNNY     64  55  72 W3        29.95S
FOSSTON        SUNNY     63  55  77 SW3       29.96F
DETROIT LAKES  SUNNY     68  55  64 W3        29.98F
MOORHEAD       SUNNY     66  57  72 CALM      29.96F
PARK RAPIDS    SUNNY     69  56  62 W7        29.97S
MAHNOMEN       FAIR      62  57  82 CALM      29.97S
$$
MNZ006-009>011-018-025>026-011500-
   North Central Minnesota

CITY           SKY/WX    TMP DP  RH WIND       PRES   REMARKS
BAUDETTE       SUNNY     68  55  63 W7        29.90F
FLAG ISLAND    SUNNY     68  54  60 W12       29.87F
INTL FALLS     SUNNY     67  56  67 VRB6      29.90S
WASKISH        SUNNY     68  61  77 SW6       29.93F
BIG FORK       SUNNY     68  55  64 W3        29.94S
LONGVILLE      SUNNY     66  55  68 CALM      29.95F
GRAND RAPIDS   SUNNY     66  54  63 W7        29.95S
CRANE LAKE     SUNNY     63  55  77 NW2       29.91S
ORR            SUNNY     66  52  59 NW7       29.90S
COOK           SUNNY     64  55  72 W7        29.93S
WALKER         FAIR      65  55  69 W6        29.96S
$$
MNZ012-019>021-037-011500-
   Northeast Minnesota

CITY           SKY/WX    TMP DP  RH WIND       PRES   REMARKS
DULUTH         SUNNY     70  53  54 NW10      29.94S
ELY            SUNNY     64  54  68 W9        29.91S
HIBBING        SUNNY     69  54  58 VRB7      29.94R
EVELETH        SUNNY     64  54  68 SW5       29.94R
DULUTH HARBOR  SUNNY     70  57  64 SW6       29.92F
TWO HARBORS    SUNNY     72  57  60 W5        29.90F
SILVER BAY     SUNNY     70  54  56 W5        29.89F
GRAND MARAIS     N/A     71  56  58 VRB6      29.84F
G MARAIS ARPRT SUNNY     64  52  63 W7        29.90S
$$
MNZ029>031-032-039>041-046>048-054>057-064-011500-
   West Central Minnesota

CITY           SKY/WX    TMP DP  RH WIND       PRES   REMARKS
FERGUS FALLS   SUNNY     70  57  64 CALM      29.96F
WHEATON        SUNNY     68  63  83 CALM      29.98F
MORRIS         SUNNY     72  64  78 CALM      29.97S
ALEXANDRIA     SUNNY     72  59  63 SW3       30.00S
ELBOW LAKE     FAIR      69  60  73 CALM      29.98S
WADENA         MOSUNNY   66  59  77 W3        29.97S
GLENWOOD       SUNNY     73  55  53 CALM      29.99F
APPLETON       SUNNY     72  63  73 CALM      29.97F
BENSON         SUNNY     70  61  73 CALM      29.99R
ORTONVILLE     SUNNY     72  63  73 CALM      29.98S
MADISON        SUNNY     70  63  78 CALM      29.98S
WILLMAR        FAIR      73  66  78 SW3       30.00S
$$
MNZ033>034-036-042>043-049>051-058-059-011500-
   Central Minnesota

CITY           SKY/WX    TMP DP  RH WIND       PRES   REMARKS
ST CLOUD       SUNNY     72  60  66 CALM      29.97F
SAUK CENTRE    FAIR      69  61  76 CALM      29.99R
PAYNESVILLE    SUNNY     67  61  81 CALM      29.99S
AITKIN         SUNNY     70  57  64 CALM      29.94F
PINE RIVER     SUNNY     66  54  63 NW5       30.00S
BRAINERD       SUNNY     69  56  62 W5        29.97S
STAPLES        MOSUNNY   68  55  64 CALM      29.98S
LONG PRAIRIE   FAIR      70  57  64 CALM      29.99R
LITTLE FALLS   MOSUNNY   68  55  64 CALM      29.97S
LITCHFIELD     SUNNY     73  63  68 CALM      29.99S
BUFFALO        SUNNY     72  59  64 CALM      29.99S
$$
MNZ037-044-045-052-053-011500-
   East Central Minnesota

CITY           SKY/WX    TMP DP  RH WIND       PRES   REMARKS
PRINCETON      SUNNY     73  59  60 CALM      29.97S
MORA           SUNNY     70  57  64 W5        29.97F
CAMBRIDGE      SUNNY     73  57  56 CALM      29.95S
RUSH CITY      SUNNY     69  59  69 CALM      29.96F
MOOSE LAKE     SUNNY     66  54  63 W6        29.94S
HINCKLEY       FAIR      70  59  68 W5        29.96S
CLOQUET        SUNNY     70  52  52 W7        29.95S
MCGREGOR       SUNNY     68  54  60 W5        29.96F
$$
MNZ071>073-080-081-089-090-097-098-011500-
   Southwest Minnesota

CITY           SKY/WX    TMP DP  RH WIND       PRES   REMARKS
MONTEVIDEO     SUNNY     75  63  64 CALM      30.00F
GRANITE FALLS  SUNNY     66  62  86 CALM      30.01S
CANBY          SUNNY     73  65  75 CALM      30.00S
MARSHALL       SUNNY     73  63  68 SW5       30.01S
REDWOOD FALLS  SUNNY     70  61  73 CALM      29.99S
OLIVIA         SUNNY     68  61  77 CALM      29.99S
PIPESTONE      MOSUNNY   70  66  88 SW3       30.03S
WINDOM         SUNNY     72  66  83 SW7       30.02F
WORTHINGTON    SUNNY     72  64  78 SW10      30.03F
JACKSON        SUNNY     72  64  78 SW9       30.03F
TRACY          SUNNY     73  68  83 SW5       30.01S
SLAYTON        SUNNY     74  69  83 CALM      30.04S
$$
MNZ065>067-074>077-082>085-091>093-011500-
   South Central Minnesota

CITY           SKY/WX    TMP DP  RH WIND       PRES   REMARKS
MANKATO        SUNNY     68  61  77 NW7       30.00R
NEW ULM        SUNNY     68  63  83 NW5       29.99S
ST JAMES       SUNNY     73  66  78 W7        30.01S
FAIRMONT       SUNNY     72  61  68 SW10      30.01F
GLENCOE        SUNNY     71  64  79 CALM      29.98S
FARIBAULT      SUNNY     70  63  78 W3        30.00R
OWATONNA       SUNNY     70  63  78 W7        30.01R
WASECA         SUNNY     68  61  77 W7        30.01S
ALBERT LEA     SUNNY     72  63  73 W6        30.00S
$$
MNZ078>079-086>088-094>096-011500-
   Southeast Minnesota

CITY           SKY/WX    TMP DP  RH WIND       PRES   REMARKS
ROCHESTER      SUNNY     69  62  78 NW13      30.01R
RED WING       SUNNY     73  61  64 CALM      29.96S
STANTON        SUNNY     69  62  78 NW3       29.98R
DODGE CENTER   SUNNY     68  63  83 W10       30.00R
WINONA         SUNNY     72  61  68 CALM      29.97S
AUSTIN         SUNNY     72  63  73 W10G16    30.00R
PRESTON        SUNNY     69  61  74 W8        30.00S
$$
ABBREVIATIONS USED IN REMARKS
   TC - TEMPERATURES IN CELSIUS
  WCI - WIND CHILL INDEX
   HX - HEAT INDEX
  VSB - VISIBILITY
$$



USA.gov is the U.S. government's official web portal to all federal, state and local government web resources and services.